Tracking 25701 objects as of 4-Jul-2022
HD Live streaming from Space Station
objects crossing your sky now

COSMOS 2499 DEB

Track COSMOS 2499 DEB now!
10-day predictions


NORAD ID: 49934
Int'l Code: 2014-028R
Perigee: 979.4 km
Apogee: 1,610.1 km
Inclination: 82.5 °
Period: 111.3 minutes
Semi major axis: 7665 km
RCS: Unknown
Launch date: May 23, 2014
Source: Commonwealth of Independent States (former USSR) (CIS)
Launch site: PLESETSK MISSILE AND SPACE COMPLEX (PKMTR)

Note: This is SATELLITE DEBRIS
aabbcc
Your satellite tracking list
Your tracking list is empty




NASA's NSSDC Master Catalog

Two Line Element Set (TLE):
1 49934U 14028R   22184.63823112  .00012541  00000-0  31129-1 0  9997
2 49934  82.4876 146.3493 0411370 106.9023 257.7607 12.93508698 19569
Source of the keplerian elements: AFSPC